TimePST,TemperatureF,Dew PointF,Humidity,Sea Level PressureIn,VisibilityMPH,Wind Direction,Wind SpeedMPH,Gust SpeedMPH,PrecipitationIn,Events,Conditions,WindDirDegrees,DateUTC
12:51 AM,61.0,30.0,31,30.09,10.0,NE,11.5,-,N/A,,Clear,50,2013-12-02 08:51:00
1:51 AM,59.0,30.0,33,30.08,10.0,NE,11.5,-,N/A,,Clear,50,2013-12-02 09:51:00
2:51 AM,59.0,28.9,32,30.06,10.0,NE,10.4,-,N/A,,Clear,50,2013-12-02 10:51:00
3:51 AM,57.9,28.9,33,30.05,10.0,NNE,12.7,-,N/A,,Clear,30,2013-12-02 11:51:00
4:51 AM,59.0,28.9,32,30.06,10.0,NNE,12.7,-,N/A,,Clear,30,2013-12-02 12:51:00
5:51 AM,59.0,27.0,29,30.07,10.0,NNE,12.7,-,N/A,,Clear,30,2013-12-02 13:51:00
6:51 AM,59.0,27.0,29,30.08,10.0,NE,10.4,-,N/A,,Clear,40,2013-12-02 14:51:00
7:51 AM,59.0,27.0,29,30.07,10.0,NE,9.2,-,N/A,,Clear,50,2013-12-02 15:51:00
8:51 AM,63.0,30.9,30,30.07,10.0,NNE,8.1,-,N/A,,Clear,30,2013-12-02 16:51:00
9:51 AM,66.9,30.0,25,30.06,10.0,East,4.6,-,N/A,,Clear,80,2013-12-02 17:51:00
10:51 AM,69.1,30.9,24,30.07,10.0,WSW,3.5,-,N/A,,Clear,240,2013-12-02 18:51:00
11:51 AM,69.1,35.1,29,30.03,10.0,WSW,5.8,-,N/A,,Clear,240,2013-12-02 19:51:00
12:51 PM,69.1,37.0,31,30.01,10.0,South,6.9,-,N/A,,Clear,180,2013-12-02 20:51:00
1:51 PM,68.0,41.0,37,29.97,10.0,South,4.6,-,N/A,,Clear,180,2013-12-02 21:51:00
2:51 PM,66.9,45.0,45,29.96,10.0,Calm,Calm,-,N/A,,Clear,0,2013-12-02 22:51:00
3:51 PM,64.9,46.9,52,29.95,10.0,SSW,3.5,-,N/A,,Clear,200,2013-12-02 23:51:00
4:51 PM,62.1,50.0,65,29.94,10.0,WSW,3.5,-,N/A,,Clear,250,2013-12-03 00:51:00
5:51 PM,57.0,48.0,72,29.94,10.0,Calm,Calm,-,N/A,,Clear,0,2013-12-03 01:51:00
6:51 PM,57.0,46.9,69,29.94,10.0,Calm,Calm,-,N/A,,Clear,0,2013-12-03 02:51:00
7:51 PM,54.0,46.9,77,29.93,10.0,NE,4.6,-,N/A,,Clear,50,2013-12-03 03:51:00
8:51 PM,52.0,44.1,74,29.92,10.0,Calm,Calm,-,N/A,,Clear,0,2013-12-03 04:51:00
9:51 PM,52.0,41.0,66,29.91,10.0,NE,5.8,-,N/A,,Clear,50,2013-12-03 05:51:00
10:51 PM,55.0,39.0,55,29.91,10.0,SE,3.5,-,N/A,,Clear,140,2013-12-03 06:51:00
11:51 PM,51.1,37.9,61,29.90,10.0,NE,4.6,-,N/A,,Clear,40,2013-12-03 07:51:00